Flag for Germany Weather past 2 weeks in Paderborn, North Rhine-Westphalia, Germany

36 °F

Light rain. Passing clouds.

Feels Like: 27 °F
Forecast: 34 / 42 °F
Wind: 13 mph from Southwest

Location: Paderborn / Lippstadt

Current Time: Nov 25, 2015 at 4:13:37 AM

Latest Report: Nov 25, 2015 at 3:50 AM

Visibility: N/A

Pressure: 29.68 "Hg

Humidity: 87%

Dew point: 32 °F

Location of PaderbornLocation

Historic Weather in Paderborn — Graph


Paderborn temperature yesterday

Maximum temperature yesterday: 37 °F (at 10:50 AM)
Minimum temperature yesterday: 32 °F (at 6:50 AM)
Average temperature yesterday: 35 °F

Past Weeks' High & Low Weather Summary

High57 °F (Nov 10, 7:20 PM)100% (Nov 15, 3:20 PM)30.30 "Hg (Nov 15, 3:20 PM)
Low30 °F (Nov 22, 9:50 PM)56% (Nov 24, 10:50 AM)29.36 "Hg (Nov 21, 5:20 AM)
Average46 °F81%29.92 "Hg
* Reported Nov 10 2:20 AM — Nov 25 2:50 AM, Paderborn, Weather by CustomWeather, © 2015

Note: Actual official high and low records may vary slightly from our data, if they occured in-between our weather recording intervals... More about our weather records


Paderborn weather history for previous 24 hours

Time TempWeatherWind HumidityBarometerVisibility
2:50 AM
Wed, Nov 25
34 °FLight rain. Passing clouds.15 mph93%29.68 "HgN/A
2:20 AM34 °FLight rain. Passing clouds.14 mph93%29.68 "HgN/A
1:50 AM34 °FLight rain. Passing clouds.15 mph93%29.71 "HgN/A
12:50 AM34 °FLight rain. Passing clouds.13 mph87%29.71 "Hg4 mi
12:20 AM34 °FLight rain. Passing clouds.15 mph87%29.74 "Hg4 mi
11:50 PM
Tue, Nov 24
32 °FLight rain. Passing clouds.14 mph93%29.74 "Hg4 mi
10:50 PM34 °FLight rain. Passing clouds.15 mph87%29.77 "Hg4 mi
10:20 PM32 °FLight rain. Ice fog.14 mph93%29.77 "Hg3 mi
9:50 PM34 °FLight rain. Fog.16 mph87%29.77 "Hg3 mi
9:20 PM34 °FLight snow. Passing clouds.16 mph87%29.80 "Hg4 mi
8:50 PM34 °FLight snow. Passing clouds.18 mph87%29.80 "Hg4 mi
8:20 PM34 °FLight rain. Passing clouds.17 mph81%29.80 "HgN/A
7:50 PM36 °FLight rain. Passing clouds.16 mph75%29.83 "HgN/A
7:20 PM36 °FLight rain. Passing clouds.17 mph75%29.83 "HgN/A
6:50 PM36 °FLight rain. Passing clouds.16 mph75%29.83 "Hg5 mi
6:20 PM34 °FLight rain. Passing clouds.18 mph81%29.86 "Hg5 mi
5:50 PM34 °FSprinkles. Passing clouds.18 mph81%29.86 "Hg5 mi
5:20 PM34 °FSprinkles. Passing clouds.17 mph81%29.86 "Hg5 mi
4:50 PM36 °FPassing clouds.15 mph70%29.89 "HgN/A
4:20 PM36 °FPartly sunny.15 mph65%29.92 "HgN/A
3:50 PM36 °FPartly sunny.13 mph65%29.92 "HgN/A
3:20 PM37 °FPartly sunny.12 mph60%29.95 "HgN/A
2:50 PM37 °FSunny.13 mph60%29.95 "Hg10 mi
2:20 PM37 °FSunny.14 mph60%29.98 "Hg10 mi
1:50 PM37 °FSunny.14 mph56%29.98 "Hg10 mi
1:20 PM37 °FSunny.16 mph56%30.01 "Hg10 mi
12:50 PM37 °FSunny.14 mph60%30.01 "Hg10 mi
12:20 PM37 °FSunny.17 mph56%30.04 "Hg10 mi
11:50 AM37 °FSunny.13 mph56%30.04 "Hg10 mi
11:20 AM37 °FSunny.13 mph60%30.07 "Hg10 mi
10:50 AM37 °FPassing clouds.13 mph56%30.07 "HgN/A
10:20 AM36 °FSunny.15 mph65%30.09 "Hg10 mi
9:50 AM36 °FPassing clouds.13 mph65%30.09 "HgN/A
9:20 AM36 °FSunny.12 mph65%30.09 "Hg10 mi
8:50 AM34 °FSunny.12 mph70%30.12 "Hg10 mi
7:50 AM34 °FClear.10 mph65%30.12 "Hg10 mi
6:50 AM32 °FClear.8 mph75%30.12 "Hg10 mi
6:20 AM34 °FClear.10 mph70%30.12 "Hg10 mi
5:50 AM34 °FClear.12 mph70%30.15 "Hg10 mi
5:20 AM34 °FClear.12 mph75%30.15 "Hg10 mi
4:50 AM34 °FClear.10 mph75%30.15 "Hg10 mi
Weather by CustomWeather, © 2015

See weather overviewHow to use our weather pages